Location: Kervinic
(48.4279°N, 4.7373°W)
Time: 09:15:15
(UTC+00:00)

Cosmos 1656 - Pass Details

Date: 09 April 2020
Orbit: 798 x 849 km, 71.1° (Epoch: 23 May)

Event Time Altitude Azimuth Distance (km) Brightness Sun altitude
Rises 21:23:02 0° 331° (NNW) 3,422 8.1 -21.5°
Reaches altitude 10° 21:25:31 10° 331° (NNW) 2,479 7.1 -21.8°
Maximum altitude 21:31:13 83° 245° (WSW) 852 3.6 -22.5°
Enters shadow 21:32:52 48° 162° (SSE) 1,085 3.9 -22.7°
